Wetterdaten: Woche 18.12.17 - 24.12.17 (KW51)
Datum Zeit Temperatur Luftfeuchte Luftdruck Niederschlag Windrichtung Sonnenschein Solar Wind
18.12.2017 00:00 -1,1 C 90 % 1025,9 hPa 0,0 l/m SW 0,00 h 0 W/m 10,9 km/h (2 Bft)
18.12.2017 01:00 -1,3 C 90 % 1025,5 hPa 0,0 l/m SW 0,00 h 0 W/m 9,5 km/h (2 Bft)
18.12.2017 02:00 -1,8 C 91 % 1025,0 hPa 0,0 l/m W-SW 0,00 h 0 W/m 3,7 km/h (1 Bft)
18.12.2017 03:00 -1,6 C 92 % 1024,2 hPa 0,0 l/m W-SW 0,00 h 0 W/m 12,9 km/h (3 Bft)
18.12.2017 04:00 -1,4 C 92 % 1023,2 hPa 0,0 l/m SW 0,00 h 0 W/m 12,1 km/h (2 Bft)
18.12.2017 05:00 -1,3 C 92 % 1022,3 hPa 0,0 l/m SW 0,00 h 0 W/m 14,8 km/h (3 Bft)
18.12.2017 06:00 -1,2 C 92 % 1022,1 hPa 0,0 l/m W-SW 0,00 h 0 W/m 10,6 km/h (2 Bft)
18.12.2017 07:00 -1,3 C 93 % 1021,5 hPa 0,0 l/m S-SW 0,00 h 0 W/m 11,0 km/h (2 Bft)
18.12.2017 08:00 -1,4 C 94 % 1021,1 hPa 0,8 l/m S-SW 0,25 h 23 W/m 13,2 km/h (3 Bft)
18.12.2017 09:00 -1,2 C 95 % 1021,1 hPa 0,6 l/m SW 0,00 h 43 W/m 16,1 km/h (3 Bft)
18.12.2017 10:00 -1,0 C 96 % 1021,1 hPa 0,2 l/m SW 0,00 h 66 W/m 15,7 km/h (3 Bft)
18.12.2017 11:00 -0,6 C 96 % 1021,3 hPa 0,0 l/m S-SW 0,00 h 63 W/m 11,0 km/h (2 Bft)
18.12.2017 12:00 -0,6 C 95 % 1021,4 hPa 0,0 l/m S 0,00 h 70 W/m 6,4 km/h (2 Bft)
18.12.2017 13:00 -0,3 C 95 % 1022,0 hPa 0,0 l/m S-SW 0,00 h 73 W/m 2,4 km/h (1 Bft)
18.12.2017 14:00 -0,1 C 95 % 1022,5 hPa 0,0 l/m S-SW 0,00 h 54 W/m 0,9 km/h (0 Bft)
18.12.2017 15:00 -0,1 C 95 % 1023,3 hPa 0,0 l/m N 0,00 h 18 W/m 0,3 km/h (0 Bft)
18.12.2017 16:00 -0,3 C 94 % 1023,9 hPa 0,0 l/m S-SW 0,00 h 7 W/m 1,1 km/h (0 Bft)
18.12.2017 17:00 -0,5 C 95 % 1024,7 hPa 0,0 l/m N 0,00 h 0 W/m 0,0 km/h (0 Bft)
18.12.2017 18:00 -0,5 C 95 % 1025,2 hPa 0,0 l/m N 0,00 h 0 W/m 0,0 km/h (0 Bft)
18.12.2017 19:00 -0,5 C 95 % 1025,7 hPa 0,0 l/m N 0,00 h 0 W/m 0,0 km/h (0 Bft)
18.12.2017 20:00 -0,5 C 95 % 1026,6 hPa 0,0 l/m N 0,00 h 0 W/m 0,0 km/h (0 Bft)
18.12.2017 21:00 -0,5 C 95 % 1027,1 hPa 0,0 l/m N 0,00 h 0 W/m 0,0 km/h (0 Bft)
18.12.2017 22:00 -0,5 C 96 % 1027,5 hPa 0,0 l/m N 0,00 h 0 W/m 0,0 km/h (0 Bft)
18.12.2017 23:00 -0,6 C 96 % 1028,0 hPa 0,0 l/m N 0,00 h 0 W/m 0,0 km/h (0 Bft)
19.12.2017 00:00 -0,7 C 96 % 1028,5 hPa 0,0 l/m N 0,00 h 0 W/m 0,0 km/h (0 Bft)
19.12.2017 01:00 -0,7 C 96 % 1028,8 hPa 0,0 l/m N 0,00 h 0 W/m 0,0 km/h (0 Bft)
19.12.2017 02:00 -0,8 C 96 % 1029,1 hPa 0,0 l/m N 0,00 h 0 W/m 0,0 km/h (0 Bft)
19.12.2017 03:00 -0,8 C 96 % 1029,5 hPa 0,0 l/m N 0,00 h 0 W/m 0,0 km/h (0 Bft)
19.12.2017 04:00 -0,8 C 96 % 1029,6 hPa 0,0 l/m N 0,00 h 0 W/m 0,0 km/h (0 Bft)
19.12.2017 05:00 -0,7 C 96 % 1030,2 hPa 0,0 l/m N 0,00 h 0 W/m 0,0 km/h (0 Bft)
19.12.2017 06:00 -0,7 C 97 % 1030,5 hPa 0,0 l/m N 0,00 h 0 W/m 0,0 km/h (0 Bft)
19.12.2017 07:00 -0,7 C 97 % 1031,7 hPa 0,0 l/m N 0,00 h 0 W/m 0,0 km/h (0 Bft)
19.12.2017 08:00 -0,6 C 97 % 1032,2 hPa 0,0 l/m N 0,00 h 14 W/m 0,0 km/h (0 Bft)
19.12.2017 09:00 -0,3 C 97 % 1032,9 hPa 0,0 l/m S-SW 0,00 h 32 W/m 0,9 km/h (0 Bft)
19.12.2017 10:00 0,2 C 97 % 1033,3 hPa 0,0 l/m N 0,00 h 65 W/m 0,0 km/h (0 Bft)
19.12.2017 11:00 0,6 C 97 % 1033,4 hPa 0,0 l/m SW 0,00 h 81 W/m 2,3 km/h (1 Bft)
19.12.2017 12:00 0,9 C 97 % 1033,2 hPa 0,0 l/m SW 0,00 h 101 W/m 1,1 km/h (0 Bft)
19.12.2017 13:00 1,1 C 95 % 1032,9 hPa 0,0 l/m SW 0,00 h 90 W/m 1,6 km/h (1 Bft)
19.12.2017 14:00 1,2 C 94 % 1032,7 hPa 0,0 l/m SW 0,00 h 58 W/m 2,9 km/h (1 Bft)
19.12.2017 15:00 1,2 C 93 % 1033,1 hPa 0,0 l/m N 0,00 h 26 W/m 0,3 km/h (0 Bft)
19.12.2017 16:00 1,0 C 93 % 1033,2 hPa 0,0 l/m N 0,00 h 8 W/m 0,0 km/h (0 Bft)
19.12.2017 17:00 0,7 C 94 % 1033,5 hPa 0,0 l/m N 0,00 h 0 W/m 0,4 km/h (0 Bft)
19.12.2017 18:00 0,6 C 94 % 1033,7 hPa 0,0 l/m N 0,00 h 0 W/m 0,0 km/h (0 Bft)
19.12.2017 19:00 0,5 C 94 % 1033,9 hPa 0,0 l/m N 0,00 h 0 W/m 0,0 km/h (0 Bft)
19.12.2017 20:00 0,3 C 95 % 1033,9 hPa 0,0 l/m N 0,00 h 0 W/m 0,0 km/h (0 Bft)
19.12.2017 21:00 0,2 C 95 % 1034,1 hPa 0,0 l/m N 0,00 h 0 W/m 0,0 km/h (0 Bft)
19.12.2017 22:00 0,2 C 95 % 1033,8 hPa 0,0 l/m SW 0,00 h 0 W/m 0,7 km/h (0 Bft)
19.12.2017 23:00 0,2 C 96 % 1033,9 hPa 0,0 l/m SW 0,00 h 0 W/m 0,7 km/h (0 Bft)
20.12.2017 00:00 0,2 C 96 % 1033,7 hPa 0,0 l/m N 0,00 h 0 W/m 0,3 km/h (0 Bft)
20.12.2017 01:00 0,3 C 96 % 1033,7 hPa 0,0 l/m N 0,00 h 0 W/m 0,0 km/h (0 Bft)
20.12.2017 02:00 0,3 C 96 % 1033,7 hPa 0,0 l/m SW 0,00 h 0 W/m 1,2 km/h (1 Bft)
20.12.2017 03:00 0,3 C 97 % 1033,4 hPa 0,0 l/m SW 0,00 h 0 W/m 2,4 km/h (1 Bft)
20.12.2017 04:00 0,3 C 97 % 1033,2 hPa 0,0 l/m SW 0,00 h 0 W/m 2,8 km/h (1 Bft)
20.12.2017 05:00 0,3 C 97 % 1033,1 hPa 0,2 l/m SW 0,00 h 0 W/m 4,1 km/h (1 Bft)
20.12.2017 06:00 0,3 C 97 % 1033,3 hPa 0,2 l/m SW 0,00 h 0 W/m 2,5 km/h (1 Bft)
20.12.2017 07:00 0,3 C 97 % 1033,5 hPa 0,0 l/m SW 0,00 h 0 W/m 3,1 km/h (1 Bft)
20.12.2017 08:00 0,3 C 98 % 1033,5 hPa 0,0 l/m SW 0,00 h 17 W/m 6,5 km/h (2 Bft)
20.12.2017 09:00 0,6 C 98 % 1033,9 hPa 0,0 l/m SW 0,25 h 61 W/m 4,3 km/h (1 Bft)
20.12.2017 10:00 0,7 C 98 % 1034,3 hPa 0,0 l/m SW 0,00 h 78 W/m 6,9 km/h (2 Bft)
20.12.2017 11:00 1,0 C 98 % 1033,9 hPa 0,0 l/m SW 0,00 h 118 W/m 3,2 km/h (1 Bft)
20.12.2017 12:00 1,3 C 98 % 1033,5 hPa 0,0 l/m SW 0,00 h 134 W/m 5,5 km/h (1 Bft)
20.12.2017 13:00 1,3 C 97 % 1033,1 hPa 0,0 l/m SW 0,00 h 104 W/m 5,9 km/h (2 Bft)
20.12.2017 14:00 1,5 C 97 % 1033,1 hPa 0,0 l/m SW 0,00 h 84 W/m 2,1 km/h (1 Bft)
20.12.2017 15:00 1,6 C 96 % 1033,4 hPa 0,0 l/m SW 0,00 h 40 W/m 0,8 km/h (0 Bft)
20.12.2017 16:00 1,4 C 96 % 1033,7 hPa 0,0 l/m N 0,00 h 13 W/m 0,8 km/h (0 Bft)
20.12.2017 17:00 1,2 C 96 % 1033,9 hPa 0,0 l/m SW 0,00 h 0 W/m 1,2 km/h (1 Bft)
20.12.2017 18:00 0,9 C 96 % 1034,5 hPa 0,0 l/m SW 0,00 h 0 W/m 5,2 km/h (1 Bft)
20.12.2017 19:00 0,7 C 96 % 1034,9 hPa 0,0 l/m SW 0,00 h 0 W/m 8,4 km/h (2 Bft)
20.12.2017 20:00 0,4 C 96 % 1035,2 hPa 0,0 l/m SW 0,00 h 0 W/m 8,0 km/h (2 Bft)
20.12.2017 21:00 0,4 C 97 % 1035,5 hPa 0,0 l/m SW 0,00 h 0 W/m 4,8 km/h (1 Bft)
20.12.2017 22:00 0,4 C 97 % 1035,3 hPa 0,0 l/m W-SW 0,00 h 0 W/m 7,1 km/h (2 Bft)
20.12.2017 23:00 0,5 C 97 % 1035,6 hPa 0,0 l/m W-SW 0,00 h 0 W/m 6,4 km/h (2 Bft)
21.12.2017 00:00 0,4 C 97 % 1035,5 hPa 0,0 l/m SW 0,00 h 0 W/m 6,8 km/h (2 Bft)
21.12.2017 01:00 0,4 C 97 % 1035,5 hPa 0,0 l/m SW 0,00 h 0 W/m 6,9 km/h (2 Bft)
21.12.2017 02:00 0,4 C 97 % 1035,5 hPa 0,0 l/m W-SW 0,00 h 0 W/m 7,8 km/h (2 Bft)
21.12.2017 03:00 0,4 C 97 % 1035,8 hPa 0,0 l/m SW 0,00 h 0 W/m 4,6 km/h (1 Bft)
21.12.2017 04:00 0,3 C 97 % 1035,7 hPa 0,0 l/m S-SW 0,00 h 0 W/m 7,4 km/h (2 Bft)
21.12.2017 05:00 0,3 C 97 % 1035,7 hPa 0,0 l/m S-SW 0,00 h 0 W/m 7,3 km/h (2 Bft)
21.12.2017 06:00 0,2 C 97 % 1035,8 hPa 0,0 l/m S-SW 0,00 h 0 W/m 9,1 km/h (2 Bft)
21.12.2017 07:00 0,2 C 97 % 1036,3 hPa 0,0 l/m S-SW 0,00 h 0 W/m 6,8 km/h (2 Bft)
21.12.2017 08:00 0,3 C 98 % 1036,4 hPa 0,0 l/m S-SW 0,08 h 21 W/m 9,9 km/h (2 Bft)
21.12.2017 09:00 0,7 C 98 % 1036,6 hPa 0,0 l/m S-SW 0,00 h 55 W/m 9,8 km/h (2 Bft)
21.12.2017 10:00 1,4 C 98 % 1036,7 hPa 0,0 l/m S-SW 0,50 h 171 W/m 12,0 km/h (2 Bft)
21.12.2017 11:00 2,0 C 96 % 1036,6 hPa 0,0 l/m SW 0,00 h 111 W/m 8,4 km/h (2 Bft)
21.12.2017 12:00 2,5 C 94 % 1036,1 hPa 0,0 l/m SW 0,00 h 120 W/m 11,7 km/h (2 Bft)
21.12.2017 13:00 2,8 C 93 % 1035,4 hPa 0,0 l/m SW 0,00 h 92 W/m 14,0 km/h (3 Bft)
21.12.2017 14:00 2,8 C 92 % 1035,1 hPa 0,0 l/m SW 0,00 h 38 W/m 8,0 km/h (2 Bft)
21.12.2017 15:00 2,8 C 93 % 1035,0 hPa 0,4 l/m SW 0,00 h 23 W/m 10,4 km/h (2 Bft)
21.12.2017 16:00 2,5 C 95 % 1035,2 hPa 0,4 l/m SW 0,00 h 6 W/m 5,9 km/h (2 Bft)
21.12.2017 17:00 2,4 C 96 % 1035,3 hPa 0,4 l/m SW 0,00 h 0 W/m 9,0 km/h (2 Bft)
21.12.2017 18:00 2,4 C 96 % 1035,8 hPa 0,4 l/m SW 0,00 h 0 W/m 7,4 km/h (2 Bft)
21.12.2017 19:00 2,4 C 97 % 1036,2 hPa 0,2 l/m SW 0,00 h 0 W/m 8,3 km/h (2 Bft)
21.12.2017 20:00 2,4 C 97 % 1036,8 hPa 0,2 l/m SW 0,00 h 0 W/m 7,0 km/h (2 Bft)
21.12.2017 21:00 2,5 C 98 % 1036,9 hPa 0,0 l/m SW 0,00 h 0 W/m 11,8 km/h (2 Bft)
21.12.2017 22:00 2,6 C 98 % 1036,8 hPa 0,0 l/m SW 0,00 h 0 W/m 12,9 km/h (3 Bft)
21.12.2017 23:00 2,7 C 98 % 1036,6 hPa 0,0 l/m SW 0,00 h 0 W/m 11,0 km/h (2 Bft)
22.12.2017 00:00 2,7 C 98 % 1036,2 hPa 0,0 l/m SW 0,00 h 0 W/m 7,6 km/h (2 Bft)
22.12.2017 01:00 2,7 C 98 % 1035,7 hPa 0,0 l/m SW 0,00 h 0 W/m 2,8 km/h (1 Bft)
22.12.2017 02:00 2,7 C 98 % 1035,5 hPa 0,2 l/m SW 0,00 h 0 W/m 2,3 km/h (1 Bft)
22.12.2017 03:00 2,8 C 99 % 1035,0 hPa 0,0 l/m S-SW 0,00 h 0 W/m 8,4 km/h (2 Bft)
22.12.2017 04:00 2,8 C 99 % 1034,8 hPa 0,0 l/m S-SW 0,00 h 0 W/m 2,9 km/h (1 Bft)
22.12.2017 05:00 2,8 C 99 % 1034,6 hPa 0,0 l/m N 0,00 h 0 W/m 0,0 km/h (0 Bft)
22.12.2017 06:00 2,8 C 99 % 1034,5 hPa 0,0 l/m S-SW 0,00 h 0 W/m 5,9 km/h (2 Bft)
22.12.2017 07:00 2,9 C 99 % 1034,3 hPa 0,0 l/m S-SW 0,00 h 0 W/m 10,3 km/h (2 Bft)
22.12.2017 08:00 3,0 C 99 % 1034,4 hPa 0,0 l/m S-SW 0,00 h 9 W/m 9,4 km/h (2 Bft)
22.12.2017 09:00 3,3 C 99 % 1034,2 hPa 0,2 l/m S-SW 0,00 h 47 W/m 9,5 km/h (2 Bft)
22.12.2017 10:00 3,6 C 99 % 1034,2 hPa 0,2 l/m S-SW 0,00 h 39 W/m 5,4 km/h (1 Bft)
22.12.2017 11:00 4,1 C 99 % 1033,8 hPa 0,0 l/m SW 0,00 h 58 W/m 5,1 km/h (1 Bft)
22.12.2017 12:00 4,5 C 99 % 1033,2 hPa 0,2 l/m SW 0,00 h 68 W/m 10,6 km/h (2 Bft)
22.12.2017 13:00 4,7 C 99 % 1032,8 hPa 0,0 l/m SW 0,00 h 59 W/m 6,4 km/h (2 Bft)
22.12.2017 14:00 5,0 C 99 % 1032,7 hPa 0,0 l/m SW 0,00 h 69 W/m 8,3 km/h (2 Bft)
22.12.2017 15:00 4,9 C 99 % 1032,8 hPa 0,0 l/m SW 0,00 h 29 W/m 10,6 km/h (2 Bft)
22.12.2017 16:00 4,8 C 99 % 1033,1 hPa 0,0 l/m SW 0,00 h 8 W/m 6,2 km/h (2 Bft)
22.12.2017 17:00 4,6 C 99 % 1033,6 hPa 0,2 l/m SW 0,00 h 0 W/m 3,1 km/h (1 Bft)
22.12.2017 18:00 4,4 C 99 % 1033,8 hPa 0,0 l/m SW 0,00 h 0 W/m 6,6 km/h (2 Bft)
22.12.2017 19:00 4,3 C 99 % 1034,3 hPa 0,0 l/m SW 0,00 h 0 W/m 2,7 km/h (1 Bft)
22.12.2017 20:00 4,3 C 99 % 1034,7 hPa 0,0 l/m SW 0,00 h 0 W/m 3,1 km/h (1 Bft)
22.12.2017 21:00 4,2 C 99 % 1034,9 hPa 0,0 l/m SW 0,00 h 0 W/m 6,5 km/h (2 Bft)
22.12.2017 22:00 4,2 C 99 % 1035,3 hPa 0,0 l/m SW 0,00 h 0 W/m 3,3 km/h (1 Bft)
22.12.2017 23:00 4,2 C 99 % 1035,4 hPa 0,0 l/m SW 0,00 h 0 W/m 3,3 km/h (1 Bft)
23.12.2017 00:00 4,2 C 99 % 1035,5 hPa 0,2 l/m SW 0,00 h 0 W/m 4,8 km/h (1 Bft)
23.12.2017 01:00 4,2 C 99 % 1035,4 hPa 0,2 l/m SW 0,00 h 0 W/m 4,9 km/h (1 Bft)
23.12.2017 02:00 4,2 C 99 % 1035,3 hPa 0,0 l/m SW 0,00 h 0 W/m 2,3 km/h (1 Bft)
23.12.2017 03:00 4,2 C 99 % 1034,8 hPa 0,0 l/m N 0,00 h 0 W/m 0,3 km/h (0 Bft)
23.12.2017 04:00 4,2 C 99 % 1034,5 hPa 0,0 l/m SW 0,00 h 0 W/m 0,7 km/h (0 Bft)
23.12.2017 05:00 4,2 C 99 % 1034,5 hPa 0,0 l/m SW 0,00 h 0 W/m 3,2 km/h (1 Bft)
23.12.2017 06:00 4,2 C 99 % 1034,4 hPa 0,0 l/m SW 0,00 h 0 W/m 6,7 km/h (2 Bft)
23.12.2017 07:00 4,2 C 99 % 1034,6 hPa 0,0 l/m SW 0,00 h 0 W/m 6,0 km/h (2 Bft)
23.12.2017 08:00 4,2 C 99 % 1034,8 hPa 0,0 l/m SW 0,00 h 9 W/m 7,9 km/h (2 Bft)
23.12.2017 09:00 4,3 C 100 % 1035,0 hPa 0,0 l/m SW 0,00 h 36 W/m 5,6 km/h (1 Bft)
23.12.2017 10:00 4,8 C 100 % 1035,2 hPa 0,0 l/m SW 0,00 h 80 W/m 8,6 km/h (2 Bft)
23.12.2017 11:00 5,2 C 99 % 1035,3 hPa 0,0 l/m SW 0,00 h 103 W/m 9,9 km/h (2 Bft)
23.12.2017 12:00 5,5 C 99 % 1034,9 hPa 0,0 l/m S-SW 0,17 h 154 W/m 12,6 km/h (3 Bft)
23.12.2017 13:00 5,8 C 99 % 1034,3 hPa 0,0 l/m S-SW 0,17 h 138 W/m 13,7 km/h (3 Bft)
23.12.2017 14:00 5,7 C 98 % 1034,1 hPa 0,0 l/m W-SW 0,17 h 101 W/m 14,4 km/h (3 Bft)
23.12.2017 15:00 5,2 C 97 % 1034,1 hPa 0,0 l/m W-SW 0,00 h 35 W/m 13,0 km/h (3 Bft)
23.12.2017 16:00 4,9 C 96 % 1034,2 hPa 0,0 l/m W-SW 0,00 h 10 W/m 12,9 km/h (3 Bft)
23.12.2017 17:00 4,6 C 96 % 1034,1 hPa 0,0 l/m W-SW 0,00 h 0 W/m 13,6 km/h (3 Bft)
23.12.2017 18:00 4,4 C 96 % 1033,9 hPa 0,0 l/m W-SW 0,00 h 0 W/m 13,8 km/h (3 Bft)
23.12.2017 19:00 4,1 C 96 % 1033,8 hPa 0,0 l/m W-SW 0,00 h 0 W/m 12,0 km/h (2 Bft)
23.12.2017 20:00 3,9 C 97 % 1033,8 hPa 0,0 l/m W-SW 0,00 h 0 W/m 11,7 km/h (2 Bft)
23.12.2017 21:00 3,8 C 97 % 1033,8 hPa 0,0 l/m W-SW 0,00 h 0 W/m 8,4 km/h (2 Bft)
23.12.2017 22:00 3,6 C 97 % 1033,6 hPa 0,0 l/m W 0,00 h 0 W/m 10,3 km/h (2 Bft)
23.12.2017 23:00 3,4 C 97 % 1033,5 hPa 0,0 l/m W 0,00 h 0 W/m 10,9 km/h (2 Bft)
24.12.2017 00:00 3,3 C 98 % 1033,2 hPa 0,0 l/m SW 0,00 h 0 W/m 10,1 km/h (2 Bft)
24.12.2017 01:00 3,2 C 98 % 1032,8 hPa 0,0 l/m W-SW 0,00 h 0 W/m 12,1 km/h (2 Bft)
24.12.2017 02:00 3,2 C 98 % 1032,5 hPa 0,0 l/m SW 0,00 h 0 W/m 10,4 km/h (2 Bft)
24.12.2017 03:00 3,2 C 98 % 1032,2 hPa 0,0 l/m SW 0,00 h 0 W/m 11,3 km/h (2 Bft)
24.12.2017 04:00 3,1 C 98 % 1031,5 hPa 0,0 l/m W-SW 0,00 h 0 W/m 13,7 km/h (3 Bft)
24.12.2017 05:00 2,8 C 99 % 1031,3 hPa 0,0 l/m W-SW 0,00 h 0 W/m 16,4 km/h (3 Bft)
24.12.2017 06:00 2,7 C 99 % 1031,4 hPa 0,0 l/m W-SW 0,00 h 0 W/m 9,1 km/h (2 Bft)
24.12.2017 07:00 2,4 C 98 % 1031,4 hPa 0,0 l/m SW 0,00 h 0 W/m 12,8 km/h (3 Bft)
24.12.2017 08:00 2,1 C 98 % 1031,2 hPa 0,0 l/m SW 0,00 h 9 W/m 10,7 km/h (2 Bft)
24.12.2017 09:00 1,9 C 99 % 1031,1 hPa 0,0 l/m SW 0,00 h 27 W/m 14,2 km/h (3 Bft)
24.12.2017 10:00 2,0 C 99 % 1031,2 hPa 0,0 l/m SW 0,00 h 50 W/m 11,7 km/h (2 Bft)
24.12.2017 11:00 2,4 C 99 % 1030,5 hPa 0,0 l/m W-SW 0,00 h 70 W/m 11,3 km/h (2 Bft)
24.12.2017 12:00 2,8 C 99 % 1029,8 hPa 0,0 l/m W-SW 0,00 h 73 W/m 10,1 km/h (2 Bft)
24.12.2017 13:00 2,7 C 99 % 1028,9 hPa 0,0 l/m SW 0,00 h 59 W/m 10,2 km/h (2 Bft)
24.12.2017 14:00 2,7 C 99 % 1028,2 hPa 0,0 l/m S-SW 0,00 h 54 W/m 10,2 km/h (2 Bft)
24.12.2017 15:00 2,6 C 99 % 1027,7 hPa 0,0 l/m S-SW 0,00 h 23 W/m 10,5 km/h (2 Bft)
24.12.2017 16:00 2,3 C 99 % 1027,6 hPa 0,0 l/m SW 0,00 h 8 W/m 7,6 km/h (2 Bft)
24.12.2017 17:00 2,0 C 98 % 1027,7 hPa 0,0 l/m SW 0,00 h 0 W/m 7,5 km/h (2 Bft)
24.12.2017 18:00 1,7 C 98 % 1027,9 hPa 0,0 l/m W-SW 0,00 h 0 W/m 4,4 km/h (1 Bft)
24.12.2017 19:00 1,6 C 99 % 1028,0 hPa 0,0 l/m W-SW 0,00 h 0 W/m 6,0 km/h (2 Bft)
24.12.2017 20:00 1,3 C 98 % 1027,6 hPa 0,0 l/m W-SW 0,00 h 0 W/m 8,6 km/h (2 Bft)
24.12.2017 21:00 1,2 C 99 % 1027,2 hPa 0,0 l/m W-SW 0,00 h 0 W/m 9,1 km/h (2 Bft)
24.12.2017 22:00 0,9 C 99 % 1026,7 hPa 0,0 l/m SW 0,00 h 0 W/m 10,8 km/h (2 Bft)
24.12.2017 23:00 0,7 C 99 % 1026,4 hPa 0,0 l/m SW 0,00 h 0 W/m 10,9 km/h (2 Bft)
Min-Datum _ 18.12.17 18.12.17 18.12.17 - - - - 18.12.17
_ Min-Zeit 02:45 00:00 10:00 - - - - 02:30
Minimum _ -1,9 C 89 % 1020,9 hPa - - - - 0,0 km/h (0 Bft)
Max-Datum _ 23.12.17 21.12.17 21.12.17 18.12.17 - 18.12.17 23.12.17 24.12.17
_ Max-Zeit 13:30 16:35 21:40 08:05 - 08:20 13:25 05:15
Maximum _ 6,2 C 100 % 1037,1 hPa 0,8 l/m - 0,08 h 315 W/m 24,1 km/h
SW (4 Bft)
Durchschnitt _ 1,7 C 97 % 1032,1 hPa #5,4 l/m SW #1:35 h 57 W/m 6,4 km/h (2 Bft)